2016: Manx Grand Prix Practice Results: 26th August

Senior

The top 10 riders and their fastest times were as follows:

  1. Andrew Dudgeon – 18:59.615 – 119.188mph
  2. Tom Weeden – 19:01.428 – 118.998mph
  3. Richard Charlton – 19:07.252 – 118.394mph
  4. Davey Lambert – 19:16.767 – 117.420mph
  5. Tom Robinson – 19:26.829 – 116.408mph
  6. Joe Akroyd – 19:31.164 – 115.977mph
  7. Jamie Hodson – 19:31.744 – 115.920mph
  8. Barry Lee Evans – 19:32.709 – 115.824mph
  9. Peter Wilkinson – 19:36.856 – 115.416mph
  10. Darren Cooper – 19:37.196 – 115.383mph

Junior

The top 10 riders and their fastest times were as follows:

  1. Andrew Dudgeon – 18:59.615 – 119.188mph
  2. Tom Weeden – 19:01.428 – 118.998mph
  3. Richard Charlton – 19:07.252 – 118.394mph
  4. Davey Lambert – 19:16.767 – 117.420mph
  5. Tom Robinson – 19:26.829 – 116.408mph
  6. David Lumsden – 19:28.600 – 116.231mph
  7. Joe Akroyd – 19:31.164 – 115.977mph
  8. Jamie Hodson – 19:31.744 – 115.920mph
  9. Barry Lee Evans – 19:32.709 – 115.824mph
  10. Peter Wilkinson – 19:36.856 – 115.416mph

Supertwin

The top 10 riders and their fastest times were as follows:

  1. Jamie Hodson – 20:05.786 – 112.647mph
  2. Andrew Dudgeon – 20:05.818 – 112.644mph
  3. David Lumsden – 20:29.606 – 110.465mph
  4. Dean Osborne – 20:33.475 – 110.118mph
  5. Victor Lopez Santos – 20:42.300 – 109.336mph
  6. Richard Charlton – 20:43.766 – 109.207mph
  7. Eddie Venn – 20:48.018 – 108.835mph
  8. Rob Temple – 20:49.033 – 108.747mph
  9. Darren Cooper – 20:50.213 – 108.644mph
  10. Mike Minns – 20:56.977 – 108.059mph

Lightweight

The top 10 riders and their fastest times were as follows:

  1. Dan Sayle – 20:44.904 – 109.107mph
  2. Dave Taylor – 21:28.356 – 105.427mph
  3. Rikki McGovern – 21:40.375 – 104.453mph
  4. James Caswell – 22:00.999 – 102.822mph
  5. Alex Sinclair – 22:08.360 – 102.252mph
  6. Nick Anderson – 22:30.165 – 100.601mph
  7. Gavin Brown – 22:30.451 – 100.579mph
  8. Elwyn Fryer – 22:35.248 – 100.224mph
  9. Daniel Ingham – 22:35.322 – 100.218mph
  10. Nigel Moore -22:37.817 – 100.034mph

Newcomers A

The top 10 riders and their fastest times were as follows:

  1. Michael Evans – 19:41.211 – 114.990mph
  2. Brendan Fargher – 20:01.858 – 113.015mph
  3. Julian Trummer – 20:07.623 – 112.475mph
  4. Wayne Humble – 20:13.897 – 111.894mph
  5. Raul Torras Martinez – 20:13.953 – 111.889mph
  6. Jamie Williams – 20:18.428 – 111.478mph
  7. Mark Foster – 20:35.989 – 109.894mph
  8. Sean Montgomery – 21:04.324 – 107.431mph
  9. Paul Williams – 21:10.922 – 106.874mph
  10. Richard Vuillermet – 21:34.319 – 104.942mph

Newcomers B

The top 10 riders and their fastest times were as follows:

  1. Jonathan Perry – 20:59.194 – 107.869mph
  2. Paul van der Heiden – 21:05.847 – 107.302mph
  3. Marc Ironside – 21:06.610 – 21:06.610 – 107.237mph
  4. Dave Butler – 21:34.870 – 104.897mph
  5. Stuart Hall – 22:35.010 – 100.241mph
  6. Daniel Ingham – 22:35.322 – 100.218mph
  7. Carsten Svendsen – 23:05.681 – 98.023mph
  8. Steven Horne – 23:09.758 – 97.735mph
  9. Scott Miller – 23:22.268 – 96.863mph
  10. Michael Brookes- 23:57.539 –  94.486mph
Advertisements

Leave a Reply

Fill in your details below or click an icon to log in:

WordPress.com Logo

You are commenting using your WordPress.com account. Log Out / Change )

Twitter picture

You are commenting using your Twitter account. Log Out / Change )

Facebook photo

You are commenting using your Facebook account. Log Out / Change )

Google+ photo

You are commenting using your Google+ account. Log Out / Change )

Connecting to %s